Volver al catálogo

ATLAS 5 CENTAUR R/B

ActivoMEO
NORAD 52942·ROCKET BODY·🇺🇸 United States

Lanzado Jul 1, 2022 desde Cape Canaveral Space Force Station

Loading…

Próximos Pases (próximas 24 horas)

TLE

ActualizadoSource: Space-Track

Época: Sep 14, 2026, 11:10 UTC

1 52942U 22073C   26257.46566236 -.00000166  00000-0  00000-0 0  9990
2 52942   4.2626  79.0670 0392449  56.4099 307.6259  0.92487881 11727

Sigue ATLAS 5 CENTAUR R/B en tiempo real con AllMySat

Download on the App Store